QPF
0.00 0.00 0.00 0.00 0.00 0.00 0.00 0.00 0.00 0.00 0.00 0.00 0.00 0.00 0.00 0.00 0.00 0.00 0.00 0.00 0.00 0.00 0.00 0.00 0.00 0.00 0.00 0.00 0.00 0.00 0.00 0.00 0.00 0.00 0.00 0.00 0.00 0.00 0.00 0.00 0.00 0.00 0.00 0.00
0.00 0.00 0.00 0.00 0.00 0.00 0.00 0.00 0.00 0.00 0.00 0.00 0.00 0.00 0.00 0.00 0.00 0.00 0.00 0.00 0.00 0.00 0.00 0.00 0.00 0.00 0.00 0.00 0.00 0.00 0.00 0.00 0.00 0.00 0.00 0.00 0.00 0.00 0.00 0.00 0.00 0.00 0.00 0.00
0.00 0.00 0.00 0.00 0.00 0.00 0.00 0.00 0.00 0.00 0.00 0.00 0.00 0.00 0.00 0.00 0.00 0.00 0.00 0.00 0.00 0.00 0.00 0.00 0.00 0.00 0.00 0.00 0.00 0.00 0.00 0.00 0.00 0.00 0.00 0.00 0.00 0.00 0.00 0.00 0.00 0.00 0.00 0.00
0.00 0.00 0.00 0.00 0.00 0.00 0.00 0.00 0.00 0.00 0.00 0.00 0.00 0.00 0.00 0.00 0.00 0.00 0.00 0.00 0.00 0.00 0.00 0.00 0.00 0.00 0.00 0.00 0.00 0.00 0.00 0.00 0.00 0.00 0.00 0.00 0.00 0.00 0.00 0.00 0.00 0.00 0.00 0.00
0.00 0.00 0.00 0.00 0.00 0.00 0.00 0.00 0.00 0.00 0.00 0.00 0.00 0.00 0.00 0.00 0.00 0.00 0.00 0.00 0.00 0.00 0.00 0.00 0.00 0.00 0.00 0.00 0.00 0.00 0.00 0.00 0.00 0.00 0.00 0.00 0.00 0.00 0.00 0.00 0.00 0.00 0.00 0.00
0.00 0.00 0.00 0.00 0.00 0.00 0.00 0.00 0.00 0.00 0.00 0.00 0.00 0.00 0.00 0.00 0.00 0.00 0.00 0.00 0.00 0.00 0.00 0.00 0.00 0.00 0.00 0.00 0.00 0.00 0.00 0.00 0.00 0.00 0.00 0.00 0.00 0.00 0.00 0.00 0.00 0.00 0.00 0.00
0.00 0.00 0.00 0.00 0.00 0.00 0.00 0.00 0.00 0.00 0.00 0.00 0.00 0.00 0.00 0.00 0.00 0.00 0.00 0.00 0.00 0.00 0.00 0.00 0.00 0.00 0.00 0.00 0.00 0.00 0.00 0.00 0.00 0.00 0.00 0.00 0.00 0.00 0.00 0.00 0.00 0.00 0.00 0.00
0.00 0.00 0.00 0.00 0.00 0.00 0.00 0.00 0.00 0.00 0.00 0.00 0.00 0.00 0.00 0.00 0.00 0.00 0.00 0.00 0.00 0.00 0.00 0.00 0.00 0.00 0.00 0.00 0.00 0.00 0.00 0.00 0.00 0.00 0.00 0.00 0.00 0.00 0.00 0.00 0.00 0.00 0.00 0.00
0.00 0.00 0.00 0.00 0.00 0.00 0.00 0.00 0.00 0.00 0.00 0.00 0.00 0.00 0.00 0.00 0.00 0.00 0.00 0.00 0.00 0.00 0.00 0.00 0.00 0.00 0.00 0.00 0.00 0.00 0.00 0.00 0.00 0.00 0.00 0.00 0.00 0.00 0.00 0.00 0.00 0.00 0.00 0.00
0.00 0.00 0.00 0.00 0.00 0.00 0.00 0.00 0.00 0.00 0.00 0.00 0.00 0.00 0.00 0.00 0.00 0.00 0.00 0.00 0.00 0.00 0.00 0.00 0.00 0.00 0.00 0.00 0.00 0.00 0.00 0.00 0.00 0.00 0.00 0.00 0.00 0.00 0.00 0.00 0.00 0.00 0.00 0.00
0.00 0.00 0.00 0.00 0.00 0.00 0.00 0.00 0.00 0.00 0.00 0.00 0.00 0.00 0.00 0.00 0.00 0.00 0.00 0.00 0.00 0.00 0.00 0.00 0.00 0.00 0.00 0.00 0.00 0.00 0.00 0.00 0.00 0.00 0.00 0.00 0.00 0.00 0.00 0.00 0.00 0.00 0.00 0.00
0.00 0.00 0.00 0.00 0.00 0.00 0.00 0.00 0.00 0.00 0.00 0.00 0.00 0.00 0.00 0.00 0.00 0.00 0.00 0.00 0.00 0.00 0.00 0.00 0.00 0.00 0.00 0.00 0.00 0.00 0.00 0.00 0.00 0.00 0.00 0.00 0.00 0.00 0.00 0.00 0.00 0.00 0.00 0.00
0.00 0.00 0.00 0.00 0.00 0.00 0.00 0.00 0.00 0.00 0.00 0.00 0.00 0.00 0.00 0.00 0.00 0.00 0.00 0.00 0.00 0.00 0.00 0.00 0.00 0.00 0.00 0.00 0.00 0.00 0.00 0.00 0.00 0.00 0.00 0.00 0.00 0.00 0.00 0.00 0.00 0.00 0.00 0.00
0.00 0.00 0.00 0.00 0.00 0.00 0.00 0.00 0.00 0.00 0.00 0.00 0.00 0.00 0.00 0.00 0.00 0.00 0.00 0.00 0.00 0.00 0.00 0.00 0.00 0.00 0.00 0.00 0.00 0.00 0.00 0.00 0.00 0.00 0.00 0.00 0.00 0.00 0.00 0.00 0.00 0.00 0.00 0.00
0.00 0.00 0.00 0.00 0.00 0.00 0.00 0.00 0.00 0.00 0.00 0.00 0.00 0.00 0.00 0.00 0.00 0.00 0.00 0.00 0.00 0.00 0.00 0.00 0.00 0.00 0.00 0.00 0.00 0.00 0.00 0.00 0.00 0.00 0.00 0.00 0.00 0.00 0.00 0.00 0.00 0.00 0.00 0.00
0.00 0.00 0.00 0.00 0.00 0.00 0.00 0.00 0.00 0.00 0.00 0.00 0.00 0.00 0.00 0.00 0.00 0.00 0.00 0.00 0.00 0.00 0.00 0.00 0.00 0.00 0.00 0.00 0.00 0.00 0.00 0.00 0.00 0.00 0.00 0.00 0.00 0.00 0.00 0.00 0.00 0.00 0.00 0.00
0.00 0.00 0.00 0.00 0.00 0.00 0.00 0.00 0.00 0.00 0.00 0.00 0.00 0.00 0.00 0.00 0.00 0.00 0.00 0.00 0.00 0.00 0.00 0.00 0.00 0.00 0.00 0.00 0.00 0.00 0.00 0.00 0.00 0.00 0.00 0.00 0.00 0.00 0.00 0.00 0.00 0.00 0.00 0.00
0.00 0.00 0.00 0.00 0.00 0.00 0.00 0.00 0.00 0.00 0.00 0.00 0.00 0.00 0.00 0.00 0.00 0.00 0.00 0.00 0.00 0.00 0.00 0.00 0.00 0.00 0.00 0.00 0.00 0.00 0.00 0.00 0.00 0.00 0.00 0.00 0.00 0.00 0.00 0.00 0.00 0.00 0.00 0.00
0.00 0.00 0.00 0.00 0.00 0.00 0.00 0.00 0.00 0.00 0.00 0.00 0.00 0.00 0.00 0.00 0.00 0.00 0.00 0.00 0.00 0.00 0.00 0.00 0.00 0.00 0.00 0.00 0.00 0.00 0.00 0.00 0.00 0.00 0.00 0.00 0.00 0.00 0.00 0.00 0.00 0.00 0.00 0.00
0.00 0.00 0.00 0.00 0.00 0.00 0.00 0.00 0.00 0.00 0.00 0.00 0.00 0.00 0.00 0.00 0.00 0.00 0.00 0.00 0.00 0.00 0.00 0.00 0.00 0.00 0.00 0.00 0.00 0.00 0.00 0.00 0.00 0.00 0.00 0.00 0.00 0.00 0.00 0.00 0.00 0.00 0.00 0.00
0.00 0.00 0.00 0.00 0.00 0.00 0.00 0.00 0.00 0.00 0.00 0.00 0.00 0.00 0.00 0.00 0.00 0.00 0.00 0.00 0.00 0.00 0.00 0.00 0.00 0.00 0.00 0.00 0.00 0.00 0.00 0.00 0.00 0.00 0.00 0.00 0.00 0.00 0.00 0.00 0.00 0.00 0.00 0.00
0.00 0.00 0.00 0.00 0.00 0.00 0.00 0.00 0.00 0.00 0.00 0.00 0.00 0.00 0.00 0.00 0.00 0.00 0.00 0.00 0.00 0.00 0.00 0.00 0.00 0.00 0.00 0.00 0.00 0.00 0.00 0.00 0.00 0.00 0.00 0.00 0.00 0.00 0.00 0.00 0.00 0.00 0.00 0.00
0.00 0.00 0.00 0.00 0.00 0.00 0.00 0.00 0.00 0.00 0.00 0.00 0.00 0.00 0.00 0.00 0.00 0.00 0.00 0.00 0.00 0.00 0.00 0.00 0.00 0.00 0.00 0.00 0.00 0.00 0.00 0.00 0.00 0.00 0.00 0.00 0.00 0.00 0.00 0.00 0.00 0.00 0.00 0.00
0.00 0.00 0.00 0.00 0.00 0.00 0.00 0.00 0.00 0.00 0.00 0.00 0.00 0.00 0.00 0.00 0.00 0.00 0.00 0.00 0.00 0.00 0.00 0.00 0.00 0.00 0.00 0.00 0.00 0.00 0.00 0.00 0.00 0.00 0.00 0.00 0.00 0.00 0.00 0.00 0.00 0.00 0.00 0.00
0.00 0.00 0.00 0.00 0.00 0.00 0.00 0.00 0.00 0.00 0.00 0.00 0.00 0.00 0.00 0.00 0.00 0.00 0.00 0.00 0.00 0.00 0.00 0.00 0.00 0.00 0.00 0.00 0.00 0.00 0.00 0.00 0.00 0.00 0.00 0.00 0.00 0.00 0.00 0.00 0.00 0.00 0.00 0.00
0.00 0.00 0.00 0.00 0.00 0.00 0.00 0.00 0.00 0.00 0.00 0.00 0.00 0.00 0.00 0.00 0.00 0.00 0.00 0.00 0.00 0.00 0.00 0.00 0.00 0.00 0.00 0.00 0.00 0.00 0.00 0.00 0.00 0.00 0.00 0.00 0.00 0.00 0.00 0.00 0.00 0.00 0.00 0.00
MSLP
1018.16 1018.70 1019.09 1019.34 1019.48 1019.52 1019.48 1019.37 1019.20 1018.97 1018.69 1018.37 1018.02 1017.69 1017.41 1017.20 1017.09 1017.08 1017.15 1017.28 1017.44 1017.59 1017.70 1017.78 1017.83 1017.86 1017.92 1018.01 1018.18 1018.43 1018.77 1019.17 1019.60 1020.05 1020.47 1020.85 1021.18 1021.43 1021.62 1021.77 1021.87 1021.95 1022.04 1022.13
1018.31 1018.69 1018.94 1019.10 1019.19 1019.26 1019.30 1019.30 1019.26 1019.13 1018.92 1018.60 1018.22 1017.80 1017.41 1017.10 1016.90 1016.85 1016.93 1017.13 1017.39 1017.65 1017.89 1018.07 1018.18 1018.24 1018.29 1018.35 1018.48 1018.69 1019.00 1019.39 1019.84 1020.31 1020.76 1021.15 1021.47 1021.71 1021.87 1021.97 1022.03 1022.08 1022.14 1022.23
1018.19 1018.40 1018.51 1018.59 1018.67 1018.80 1018.97 1019.13 1019.25 1019.25 1019.12 1018.82 1018.39 1017.88 1017.36 1016.92 1016.62 1016.52 1016.60 1016.85 1017.20 1017.59 1017.96 1018.26 1018.46 1018.57 1018.64 1018.70 1018.81 1019.01 1019.30 1019.69 1020.14 1020.62 1021.08 1021.47 1021.78 1021.99 1022.10 1022.16 1022.18 1022.20 1022.24 1022.32
1017.87 1017.92 1017.91 1017.94 1018.05 1018.28 1018.59 1018.94 1019.23 1019.38 1019.32 1019.04 1018.55 1017.93 1017.28 1016.69 1016.28 1016.09 1016.16 1016.44 1016.88 1017.39 1017.89 1018.31 1018.62 1018.82 1018.94 1019.03 1019.14 1019.33 1019.62 1020.00 1020.45 1020.93 1021.38 1021.76 1022.04 1022.21 1022.29 1022.31 1022.29 1022.28 1022.30 1022.37
1017.51 1017.41 1017.31 1017.31 1017.48 1017.82 1018.29 1018.82 1019.27 1019.55 1019.56 1019.28 1018.73 1017.99 1017.18 1016.45 1015.90 1015.62 1015.65 1015.95 1016.45 1017.07 1017.69 1018.24 1018.66 1018.95 1019.14 1019.27 1019.41 1019.61 1019.90 1020.27 1020.71 1021.17 1021.60 1021.96 1022.22 1022.36 1022.41 1022.40 1022.37 1022.34 1022.35 1022.40
1017.20 1016.99 1016.84 1016.84 1017.07 1017.52 1018.14 1018.82 1019.41 1019.78 1019.83 1019.53 1018.90 1018.04 1017.08 1016.20 1015.52 1015.15 1015.12 1015.42 1015.97 1016.66 1017.39 1018.05 1018.58 1018.97 1019.23 1019.42 1019.59 1019.80 1020.09 1020.45 1020.88 1021.32 1021.72 1022.06 1022.29 1022.43 1022.47 1022.45 1022.41 1022.38 1022.39 1022.44
1016.98 1016.72 1016.55 1016.57 1016.87 1017.42 1018.15 1018.94 1019.62 1020.04 1020.10 1019.75 1019.04 1018.06 1016.98 1015.96 1015.16 1014.70 1014.62 1014.90 1015.47 1016.22 1017.02 1017.77 1018.39 1018.86 1019.20 1019.44 1019.65 1019.88 1020.17 1020.53 1020.94 1021.36 1021.75 1022.06 1022.29 1022.42 1022.47 1022.47 1022.45 1022.44 1022.46 1022.51
1016.83 1016.56 1016.41 1016.48 1016.83 1017.45 1018.26 1019.10 1019.81 1020.24 1020.27 1019.88 1019.09 1018.02 1016.84 1015.72 1014.84 1014.31 1014.18 1014.43 1015.00 1015.77 1016.62 1017.42 1018.11 1018.65 1019.05 1019.34 1019.59 1019.85 1020.15 1020.51 1020.91 1021.32 1021.70 1022.01 1022.25 1022.39 1022.47 1022.50 1022.51 1022.53 1022.57 1022.62
1016.64 1016.41 1016.31 1016.44 1016.85 1017.51 1018.34 1019.18 1019.88 1020.27 1020.26 1019.81 1018.97 1017.85 1016.62 1015.46 1014.53 1013.96 1013.80 1014.03 1014.58 1015.35 1016.20 1017.03 1017.76 1018.34 1018.79 1019.14 1019.44 1019.73 1020.05 1020.43 1020.83 1021.24 1021.62 1021.95 1022.20 1022.37 1022.48 1022.55 1022.60 1022.65 1022.70 1022.75
1016.32 1016.17 1016.15 1016.34 1016.78 1017.45 1018.26 1019.07 1019.71 1020.04 1019.98 1019.50 1018.64 1017.52 1016.29 1015.14 1014.22 1013.65 1013.48 1013.69 1014.21 1014.95 1015.79 1016.61 1017.35 1017.97 1018.46 1018.86 1019.21 1019.55 1019.92 1020.32 1020.75 1021.17 1021.57 1021.91 1022.18 1022.38 1022.52 1022.62 1022.69 1022.76 1022.82 1022.85
1015.77 1015.73 1015.81 1016.06 1016.53 1017.18 1017.94 1018.67 1019.22 1019.49 1019.38 1018.88 1018.05 1016.98 1015.82 1014.74 1013.89 1013.36 1013.20 1013.39 1013.89 1014.58 1015.38 1016.18 1016.91 1017.54 1018.07 1018.53 1018.94 1019.35 1019.78 1020.23 1020.69 1021.15 1021.56 1021.92 1022.20 1022.41 1022.57 1022.68 1022.76 1022.82 1022.86 1022.88
1015.03 1015.12 1015.29 1015.60 1016.08 1016.69 1017.36 1017.99 1018.44 1018.63 1018.49 1018.01 1017.23 1016.26 1015.22 1014.27 1013.52 1013.06 1012.93 1013.13 1013.58 1014.23 1014.97 1015.73 1016.44 1017.08 1017.65 1018.17 1018.66 1019.15 1019.65 1020.17 1020.68 1021.16 1021.60 1021.96 1022.24 1022.45 1022.59 1022.68 1022.75 1022.78 1022.79 1022.77
1014.21 1014.42 1014.67 1015.02 1015.48 1016.02 1016.59 1017.10 1017.45 1017.56 1017.39 1016.94 1016.25 1015.41 1014.53 1013.73 1013.11 1012.75 1012.67 1012.86 1013.29 1013.88 1014.56 1015.26 1015.96 1016.61 1017.22 1017.80 1018.37 1018.95 1019.54 1020.12 1020.68 1021.20 1021.64 1022.00 1022.26 1022.44 1022.55 1022.60 1022.62 1022.61 1022.57 1022.50
1013.47 1013.78 1014.09 1014.45 1014.87 1015.32 1015.76 1016.13 1016.36 1016.39 1016.20 1015.79 1015.20 1014.50 1013.79 1013.16 1012.68 1012.42 1012.40 1012.60 1012.99 1013.52 1014.14 1014.81 1015.48 1016.14 1016.79 1017.44 1018.09 1018.76 1019.42 1020.07 1020.67 1021.20 1021.64 1021.98 1022.21 1022.35 1022.41 1022.41 1022.37 1022.31 1022.22 1022.09
1012.98 1013.35 1013.69 1014.03 1014.37 1014.70 1014.99 1015.21 1015.30 1015.25 1015.03 1014.66 1014.17 1013.61 1013.06 1012.60 1012.26 1012.10 1012.13 1012.34 1012.70 1013.19 1013.75 1014.37 1015.02 1015.69 1016.38 1017.09 1017.82 1018.56 1019.28 1019.97 1020.60 1021.14 1021.57 1021.87 1022.06 1022.14 1022.15 1022.09 1022.00 1021.89 1021.76 1021.60
1012.84 1013.23 1013.56 1013.83 1014.05 1014.24 1014.37 1014.42 1014.37 1014.23 1013.97 1013.63 1013.22 1012.80 1012.40 1012.08 1011.87 1011.81 1011.89 1012.11 1012.45 1012.90 1013.42 1014.00 1014.64 1015.31 1016.03 1016.78 1017.56 1018.34 1019.11 1019.82 1020.45 1020.97 1021.37 1021.64 1021.78 1021.82 1021.78 1021.68 1021.56 1021.41 1021.24 1021.06
1013.03 1013.40 1013.67 1013.84 1013.93 1013.95 1013.90 1013.78 1013.60 1013.36 1013.07 1012.74 1012.41 1012.09 1011.82 1011.64 1011.54 1011.57 1011.70 1011.94 1012.27 1012.69 1013.18 1013.74 1014.35 1015.03 1015.76 1016.53 1017.33 1018.13 1018.89 1019.60 1020.21 1020.70 1021.06 1021.29 1021.40 1021.40 1021.33 1021.22 1021.07 1020.91 1020.74 1020.55
1013.42 1013.74 1013.92 1013.97 1013.91 1013.76 1013.54 1013.26 1012.95 1012.62 1012.30 1011.99 1011.72 1011.50 1011.35 1011.28 1011.29 1011.40 1011.59 1011.85 1012.19 1012.60 1013.07 1013.61 1014.21 1014.88 1015.60 1016.36 1017.14 1017.92 1018.66 1019.33 1019.89 1020.34 1020.66 1020.85 1020.93 1020.92 1020.85 1020.73 1020.60 1020.44 1020.28 1020.09
1013.82 1014.05 1014.13 1014.05 1013.84 1013.53 1013.16 1012.75 1012.34 1011.96 1011.62 1011.34 1011.14 1011.01 1010.97 1011.02 1011.13 1011.32 1011.57 1011.88 1012.24 1012.65 1013.12 1013.64 1014.23 1014.87 1015.57 1016.29 1017.04 1017.76 1018.44 1019.04 1019.55 1019.93 1020.21 1020.37 1020.43 1020.42 1020.36 1020.27 1020.15 1020.02 1019.87 1019.69
1013.99 1014.13 1014.10 1013.90 1013.56 1013.14 1012.65 1012.16 1011.70 1011.30 1010.98 1010.76 1010.64 1010.62 1010.69 1010.84 1011.06 1011.34 1011.66 1012.01 1012.41 1012.84 1013.31 1013.83 1014.40 1015.01 1015.66 1016.34 1017.01 1017.66 1018.26 1018.78 1019.21 1019.53 1019.76 1019.89 1019.95 1019.95 1019.91 1019.84 1019.74 1019.63 1019.48 1019.30
1013.78 1013.84 1013.71 1013.41 1013.00 1012.50 1011.97 1011.45 1011.00 1010.63 1010.37 1010.23 1010.21 1010.30 1010.49 1010.75 1011.07 1011.44 1011.83 1012.24 1012.68 1013.13 1013.62 1014.13 1014.68 1015.26 1015.86 1016.47 1017.06 1017.62 1018.13 1018.56 1018.91 1019.17 1019.35 1019.46 1019.51 1019.52 1019.49 1019.43 1019.35 1019.24 1019.08 1018.88
1013.14 1013.12 1012.93 1012.59 1012.14 1011.63 1011.12 1010.64 1010.24 1009.95 1009.79 1009.77 1009.86 1010.07 1010.37 1010.74 1011.16 1011.61 1012.07 1012.53 1013.01 1013.49 1013.99 1014.50 1015.03 1015.57 1016.11 1016.65 1017.16 1017.63 1018.04 1018.39 1018.66 1018.86 1019.00 1019.09 1019.12 1019.13 1019.10 1019.04 1018.95 1018.82 1018.63 1018.38
1012.14 1012.08 1011.85 1011.51 1011.08 1010.62 1010.18 1009.79 1009.51 1009.34 1009.31 1009.41 1009.63 1009.95 1010.36 1010.82 1011.32 1011.82 1012.34 1012.85 1013.36 1013.86 1014.36 1014.87 1015.37 1015.87 1016.36 1016.83 1017.27 1017.65 1017.99 1018.26 1018.47 1018.62 1018.72 1018.77 1018.79 1018.77 1018.72 1018.64 1018.52 1018.34 1018.10 1017.79
1010.94 1010.85 1010.63 1010.33 1009.97 1009.61 1009.28 1009.03 1008.89 1008.87 1008.97 1009.20 1009.54 1009.96 1010.45 1010.98 1011.52 1012.08 1012.62 1013.16 1013.68 1014.19 1014.69 1015.18 1015.65 1016.12 1016.56 1016.97 1017.34 1017.66 1017.93 1018.15 1018.30 1018.41 1018.47 1018.49 1018.48 1018.43 1018.34 1018.21 1018.03 1017.78 1017.47 1017.09
1009.73 1009.63 1009.45 1009.22 1008.97 1008.73 1008.56 1008.46 1008.48 1008.60 1008.84 1009.18 1009.61 1010.10 1010.64 1011.21 1011.78 1012.35 1012.90 1013.43 1013.95 1014.45 1014.93 1015.40 1015.85 1016.28 1016.67 1017.04 1017.36 1017.63 1017.85 1018.02 1018.14 1018.21 1018.24 1018.23 1018.18 1018.08 1017.94 1017.74 1017.48 1017.16 1016.77 1016.32
1008.67 1008.59 1008.47 1008.33 1008.20 1008.11 1008.09 1008.16 1008.32 1008.57 1008.93 1009.36 1009.85 1010.38 1010.95 1011.52 1012.08 1012.63 1013.17 1013.68 1014.17 1014.65 1015.10 1015.54 1015.95 1016.34 1016.70 1017.02 1017.30 1017.54 1017.73 1017.86 1017.95 1018.00 1018.00 1017.95 1017.86 1017.71 1017.50 1017.23 1016.90 1016.49 1016.03 1015.51
Thickness
5666 5656 5652 5657 5661 5664 5666 5666 5664 5672 5687 5683 5679 5683 5691 5695 5691 5687 5683 5681 5680 5680 5681 5680 5679 5678 5677 5675 5672 5669 5664 5660 5656 5650 5645 5640 5635 5631 5628 5624 5621 5618 5614 5610
5646 5647 5660 5663 5663 5661 5661 5659 5660 5668 5680 5679 5676 5680 5690 5692 5691 5689 5686 5680 5676 5674 5673 5672 5671 5669 5668 5666 5663 5660 5657 5653 5650 5645 5639 5633 5628 5623 5620 5616 5613 5609 5606 5602
5639 5653 5663 5658 5655 5655 5656 5656 5658 5659 5667 5671 5669 5671 5682 5691 5692 5690 5685 5680 5675 5673 5668 5666 5663 5661 5658 5656 5655 5654 5650 5646 5642 5638 5632 5626 5619 5614 5610 5607 5603 5601 5598 5595
5637 5651 5655 5653 5653 5653 5647 5659 5657 5656 5649 5643 5655 5644 5672 5680 5682 5681 5676 5672 5668 5667 5663 5660 5657 5654 5651 5648 5647 5645 5641 5638 5634 5630 5625 5619 5612 5606 5602 5598 5594 5591 5588 5585
5635 5648 5646 5645 5650 5651 5649 5658 5656 5652 5644 5637 5640 5636 5662 5672 5671 5673 5671 5667 5664 5662 5659 5655 5652 5648 5645 5641 5638 5636 5633 5629 5625 5621 5616 5610 5603 5598 5593 5589 5585 5582 5579 5575
5638 5649 5649 5649 5653 5652 5650 5645 5637 5625 5622 5620 5632 5625 5645 5661 5670 5673 5669 5664 5661 5657 5653 5649 5645 5641 5637 5633 5630 5627 5624 5619 5616 5611 5606 5601 5595 5590 5585 5580 5575 5572 5568 5565
5628 5637 5645 5647 5639 5641 5638 5622 5608 5610 5603 5612 5631 5627 5647 5672 5676 5675 5673 5665 5658 5653 5648 5643 5638 5635 5630 5626 5622 5619 5615 5610 5606 5602 5597 5592 5587 5582 5576 5571 5566 5561 5557 5554
5609 5614 5632 5637 5636 5628 5623 5619 5604 5601 5602 5613 5630 5626 5655 5675 5676 5676 5672 5663 5653 5647 5644 5641 5636 5631 5626 5620 5616 5611 5607 5602 5597 5593 5588 5583 5578 5572 5567 5562 5557 5552 5548 5544
5606 5610 5629 5634 5637 5630 5616 5612 5617 5605 5605 5605 5616 5633 5655 5672 5670 5665 5660 5653 5648 5644 5640 5637 5631 5626 5621 5615 5610 5605 5599 5594 5589 5584 5578 5573 5568 5563 5558 5553 5548 5543 5539 5535
5613 5606 5618 5625 5628 5627 5623 5617 5603 5597 5592 5592 5608 5624 5638 5657 5661 5657 5650 5647 5645 5641 5636 5631 5627 5622 5617 5611 5604 5597 5592 5586 5580 5574 5569 5564 5558 5553 5548 5543 5538 5533 5529 5525
5613 5603 5604 5611 5612 5611 5612 5611 5607 5597 5594 5590 5595 5618 5646 5652 5655 5651 5647 5646 5643 5639 5635 5630 5624 5618 5611 5604 5596 5590 5583 5577 5571 5565 5559 5553 5548 5543 5537 5532 5527 5523 5518 5514
5608 5596 5591 5600 5611 5613 5610 5610 5603 5595 5595 5592 5590 5613 5649 5649 5650 5647 5645 5643 5640 5637 5633 5626 5619 5611 5603 5596 5589 5582 5575 5569 5562 5556 5549 5543 5537 5532 5526 5521 5517 5512 5508 5503
5607 5593 5584 5588 5597 5604 5604 5607 5607 5603 5596 5585 5586 5612 5642 5642 5644 5643 5640 5637 5634 5630 5625 5618 5611 5605 5598 5590 5582 5575 5567 5560 5553 5546 5539 5533 5526 5521 5515 5510 5506 5501 5497 5493
5613 5594 5592 5590 5597 5601 5600 5605 5605 5598 5589 5588 5595 5612 5629 5634 5635 5636 5635 5632 5628 5624 5619 5612 5605 5598 5591 5583 5575 5567 5558 5551 5544 5536 5529 5522 5516 5511 5505 5500 5495 5490 5486 5482
5607 5595 5596 5600 5606 5601 5603 5606 5602 5599 5600 5596 5606 5611 5624 5628 5628 5629 5628 5626 5621 5616 5611 5606 5598 5590 5582 5573 5565 5557 5549 5542 5534 5526 5519 5513 5507 5501 5495 5490 5485 5480 5475 5471
5599 5594 5594 5597 5601 5599 5601 5604 5602 5602 5603 5601 5604 5611 5625 5625 5623 5621 5620 5618 5614 5610 5605 5599 5591 5582 5574 5566 5556 5547 5539 5531 5524 5516 5509 5503 5496 5491 5485 5480 5474 5469 5465 5460
5589 5588 5583 5580 5593 5592 5587 5601 5602 5602 5605 5605 5603 5617 5621 5617 5616 5614 5612 5610 5607 5603 5597 5590 5583 5576 5567 5557 5548 5538 5530 5521 5513 5506 5499 5493 5486 5480 5475 5470 5464 5459 5455 5450
5584 5581 5573 5571 5578 5569 5594 5610 5609 5606 5609 5608 5611 5616 5615 5613 5610 5608 5605 5602 5598 5593 5587 5580 5572 5563 5554 5546 5537 5528 5519 5511 5503 5496 5489 5483 5476 5470 5465 5459 5454 5449 5445 5440
5585 5579 5566 5557 5561 5570 5589 5604 5605 5599 5601 5610 5607 5608 5604 5601 5598 5595 5595 5593 5588 5583 5576 5568 5560 5552 5542 5534 5525 5516 5508 5500 5492 5485 5479 5473 5466 5460 5455 5449 5444 5440 5435 5430
5573 5573 5561 5551 5557 5560 5589 5606 5607 5600 5592 5608 5604 5598 5591 5590 5583 5585 5585 5580 5574 5568 5561 5554 5546 5538 5529 5521 5513 5505 5496 5488 5481 5475 5469 5463 5457 5451 5445 5440 5435 5430 5424 5420
5561 5559 5554 5550 5553 5563 5590 5598 5596 5580 5590 5603 5597 5591 5584 5583 5581 5577 5571 5564 5559 5553 5546 5540 5532 5524 5516 5508 5500 5492 5484 5477 5472 5465 5459 5453 5447 5441 5435 5430 5424 5418 5413 5408
5562 5552 5547 5545 5546 5561 5591 5585 5583 5588 5593 5593 5589 5585 5579 5575 5568 5562 5556 5550 5543 5537 5531 5525 5517 5509 5501 5495 5488 5480 5473 5468 5461 5455 5449 5443 5437 5431 5426 5419 5413 5406 5399 5394
5563 5569 5565 5565 5572 5585 5585 5586 5588 5585 5584 5583 5579 5576 5569 5561 5555 5549 5543 5536 5530 5524 5518 5511 5503 5495 5488 5482 5476 5468 5463 5457 5450 5444 5438 5432 5426 5420 5413 5406 5400 5393 5386 5378
5560 5565 5561 5562 5570 5578 5578 5579 5579 5578 5577 5574 5570 5564 5558 5552 5544 5537 5529 5522 5516 5510 5504 5497 5489 5482 5475 5469 5463 5457 5451 5446 5439 5433 5427 5421 5414 5409 5402 5394 5386 5379 5371 5363
5565 5558 5559 5561 5570 5572 5573 5570 5569 5567 5565 5562 5558 5553 5547 5541 5533 5525 5517 5510 5504 5497 5490 5484 5477 5470 5464 5458 5452 5446 5440 5434 5428 5421 5415 5409 5402 5396 5390 5383 5374 5366 5359 5346
5556 5559 5560 5563 5568 5564 5565 5565 5560 5556 5553 5549 5545 5540 5535 5529 5522 5514 5506 5498 5491 5484 5477 5471 5464 5458 5452 5446 5440 5434 5429 5423 5416 5409 5403 5397 5390 5383 5375 5369 5365 5358 5346 5338